Tracking 32214 objects as of 19-Nov-2025
HD Live streaming from Space Station
objects crossing your sky now

STARLINK-35573

Track STARLINK-35573 now!
10-day predictions
STARLINK-35573 is classified as:


NORAD ID: 66116
Int'l Code: 2025-237C
Perigee: 424.4 km
Apogee: 427.7 km
Inclination: 53.2 °
Period: 92.9 minutes
Semi major axis: 6797 km
RCS: Unknown
Launch date: October 22, 2025
Source: United States (US)
Launch site: AIR FORCE WESTERN TEST RANGE (AFWTR)
Your satellite tracking list
Your tracking list is empty




NASA's NSSDC Master Catalog

Two Line Element Set (TLE):
1 66116U 25237C   25322.40436390  .00101610  00000-0  18139-2 0  9995
2 66116  53.1611 202.1102 0002431  37.3147 322.8030 15.49267070  5499
Source of the keplerian elements: AFSPC